<?xml version="1.0" encoding="UTF-8" standalone="yes"?>
<gpx version="1.1" creator="MagicMaps Scout"  xsi:schemaLocation="http://www.topografix.com/GPX/1/1 http://www.topografix.com/GPX/1/1/gpx.xsd http://www.garmin.com/xmlschemas/TrackPointExtension/v1 http://www.garmin.com/xmlschemas/TrackPointExtensionv1.xsd" xmlns="http://www.topografix.com/GPX/1/1" xmlns:xsi="http://www.w3.org/2001/XMLSchema-instance" xmlns:gpxtpx="http://www.garmin.com/xmlschemas/TrackPointExtension/v1"> 
<trk>
<name>RTF-2446-M - Zwischen Iller und Rot - Mittelstrecke on GPSies.com</name>
<trkseg>
<trkpt lat="48.411630" lon="10.010640"><ele>466</ele><time>2015-05-06T05:45:51Z</time></trkpt>
<trkpt lat="48.411590" lon="10.012460"><ele>466</ele><time>2015-05-06T05:45:51Z</time></trkpt>
<trkpt lat="48.410180" lon="10.013880"><ele>466</ele><time>2015-05-06T05:45:51Z</time></trkpt>
<trkpt lat="48.408760" lon="10.014800"><ele>467</ele><time>2015-05-06T05:45:51Z</time></trkpt>
<trkpt lat="48.408150" lon="10.014990"><ele>467</ele><time>2015-05-06T05:45:51Z</time></trkpt>
<trkpt lat="48.407810" lon="10.015150"><ele>467</ele><time>2015-05-06T05:45:51Z</time></trkpt>
<trkpt lat="48.407380" lon="10.014980"><ele>467</ele><time>2015-05-06T05:45:51Z</time></trkpt>
<trkpt lat="48.406740" lon="10.014460"><ele>469</ele><time>2015-05-06T05:45:51Z</time></trkpt>
<trkpt lat="48.405670" lon="10.015250"><ele>466</ele><time>2015-05-06T05:45:51Z</time></trkpt>
<trkpt lat="48.404490" lon="10.014240"><ele>466</ele><time>2015-05-06T05:45:51Z</time></trkpt>
<trkpt lat="48.402800" lon="10.011910"><ele>466</ele><time>2015-05-06T05:45:51Z</time></trkpt>
<trkpt lat="48.402600" lon="10.011300"><ele>467</ele><time>2015-05-06T05:45:51Z</time></trkpt>
<trkpt lat="48.402410" lon="10.010020"><ele>469</ele><time>2015-05-06T05:45:51Z</time></trkpt>
<trkpt lat="48.402010" lon="10.009430"><ele>467</ele><time>2015-05-06T05:45:51Z</time></trkpt>
<trkpt lat="48.401410" lon="10.009120"><ele>467</ele><time>2015-05-06T05:45:51Z</time></trkpt>
<trkpt lat="48.400840" lon="10.007890"><ele>467</ele><time>2015-05-06T05:45:51Z</time></trkpt>
<trkpt lat="48.399470" lon="10.004220"><ele>468</ele><time>2015-05-06T05:45:51Z</time></trkpt>
<trkpt lat="48.398990" lon="10.002890"><ele>470</ele><time>2015-05-06T05:45:51Z</time></trkpt>
<trkpt lat="48.398240" lon="10.001290"><ele>466</ele><time>2015-05-06T05:45:51Z</time></trkpt>
<trkpt lat="48.397290" lon="9.999480"><ele>469</ele><time>2015-05-06T05:45:51Z</time></trkpt>
<trkpt lat="48.396300" lon="9.996860"><ele>466</ele><time>2015-05-06T05:45:51Z</time></trkpt>
<trkpt lat="48.395600" lon="9.994150"><ele>466</ele><time>2015-05-06T05:45:51Z</time></trkpt>
<trkpt lat="48.395130" lon="9.992020"><ele>467</ele><time>2015-05-06T05:45:51Z</time></trkpt>
<trkpt lat="48.394380" lon="9.989950"><ele>469</ele><time>2015-05-06T05:45:51Z</time></trkpt>
<trkpt lat="48.393810" lon="9.988750"><ele>468</ele><time>2015-05-06T05:45:51Z</time></trkpt>
<trkpt lat="48.393390" lon="9.988100"><ele>469</ele><time>2015-05-06T05:45:51Z</time></trkpt>
<trkpt lat="48.392290" lon="9.987340"><ele>468</ele><time>2015-05-06T05:45:51Z</time></trkpt>
<trkpt lat="48.391060" lon="9.986940"><ele>467</ele><time>2015-05-06T05:45:51Z</time></trkpt>
<trkpt lat="48.390300" lon="9.986520"><ele>469</ele><time>2015-05-06T05:45:51Z</time></trkpt>
<trkpt lat="48.389820" lon="9.987560"><ele>470</ele><time>2015-05-06T05:45:51Z</time></trkpt>
<trkpt lat="48.388880" lon="9.986830"><ele>471</ele><time>2015-05-06T05:45:51Z</time></trkpt>
<trkpt lat="48.387940" lon="9.986380"><ele>470</ele><time>2015-05-06T05:45:51Z</time></trkpt>
<trkpt lat="48.387330" lon="9.986100"><ele>470</ele><time>2015-05-06T05:45:51Z</time></trkpt>
<trkpt lat="48.386580" lon="9.986890"><ele>471</ele><time>2015-05-06T05:45:51Z</time></trkpt>
<trkpt lat="48.385760" lon="9.986690"><ele>470</ele><time>2015-05-06T05:45:51Z</time></trkpt>
<trkpt lat="48.383100" lon="9.988120"><ele>472</ele><time>2015-05-06T05:45:51Z</time></trkpt>
<trkpt lat="48.382070" lon="9.989200"><ele>472</ele><time>2015-05-06T05:45:51Z</time></trkpt>
<trkpt lat="48.380790" lon="9.990800"><ele>473</ele><time>2015-05-06T05:45:51Z</time></trkpt>
<trkpt lat="48.379690" lon="9.992170"><ele>474</ele><time>2015-05-06T05:45:51Z</time></trkpt>
<trkpt lat="48.378210" lon="9.991940"><ele>474</ele><time>2015-05-06T05:45:51Z</time></trkpt>
<trkpt lat="48.376050" lon="9.991350"><ele>474</ele><time>2015-05-06T05:45:51Z</time></trkpt>
<trkpt lat="48.373730" lon="9.990510"><ele>474</ele><time>2015-05-06T05:45:51Z</time></trkpt>
<trkpt lat="48.372640" lon="9.989630"><ele>474</ele><time>2015-05-06T05:45:51Z</time></trkpt>
<trkpt lat="48.371710" lon="9.988490"><ele>476</ele><time>2015-05-06T05:45:51Z</time></trkpt>
<trkpt lat="48.370870" lon="9.988430"><ele>472</ele><time>2015-05-06T05:45:51Z</time></trkpt>
<trkpt lat="48.369770" lon="9.988790"><ele>477</ele><time>2015-05-06T05:45:51Z</time></trkpt>
<trkpt lat="48.368010" lon="9.990410"><ele>479</ele><time>2015-05-06T05:45:51Z</time></trkpt>
<trkpt lat="48.366830" lon="9.991030"><ele>476</ele><time>2015-05-06T05:45:51Z</time></trkpt>
<trkpt lat="48.365310" lon="9.990880"><ele>476</ele><time>2015-05-06T05:45:51Z</time></trkpt>
<trkpt lat="48.363530" lon="9.990090"><ele>480</ele><time>2015-05-06T05:45:51Z</time></trkpt>
<trkpt lat="48.362440" lon="9.989390"><ele>484</ele><time>2015-05-06T05:45:51Z</time></trkpt>
<trkpt lat="48.361910" lon="9.988030"><ele>485</ele><time>2015-05-06T05:45:51Z</time></trkpt>
<trkpt lat="48.360200" lon="9.988410"><ele>486</ele><time>2015-05-06T05:45:51Z</time></trkpt>
<trkpt lat="48.358820" lon="9.988130"><ele>487</ele><time>2015-05-06T05:45:51Z</time></trkpt>
<trkpt lat="48.357310" lon="9.986460"><ele>486</ele><time>2015-05-06T05:45:51Z</time></trkpt>
<trkpt lat="48.356440" lon="9.986270"><ele>483</ele><time>2015-05-06T05:45:51Z</time></trkpt>
<trkpt lat="48.355550" lon="9.985280"><ele>486</ele><time>2015-05-06T05:45:51Z</time></trkpt>
<trkpt lat="48.354290" lon="9.983580"><ele>488</ele><time>2015-05-06T05:45:51Z</time></trkpt>
<trkpt lat="48.353090" lon="9.981370"><ele>488</ele><time>2015-05-06T05:45:51Z</time></trkpt>
<trkpt lat="48.352150" lon="9.980020"><ele>488</ele><time>2015-05-06T05:45:51Z</time></trkpt>
<trkpt lat="48.350370" lon="9.978670"><ele>489</ele><time>2015-05-06T05:45:51Z</time></trkpt>
<trkpt lat="48.348530" lon="9.978590"><ele>489</ele><time>2015-05-06T05:45:51Z</time></trkpt>
<trkpt lat="48.347550" lon="9.977560"><ele>490</ele><time>2015-05-06T05:45:51Z</time></trkpt>
<trkpt lat="48.346620" lon="9.975650"><ele>490</ele><time>2015-05-06T05:45:51Z</time></trkpt>
<trkpt lat="48.346410" lon="9.973730"><ele>490</ele><time>2015-05-06T05:45:51Z</time></trkpt>
<trkpt lat="48.346480" lon="9.970720"><ele>491</ele><time>2015-05-06T05:45:51Z</time></trkpt>
<trkpt lat="48.346630" lon="9.969380"><ele>491</ele><time>2015-05-06T05:45:51Z</time></trkpt>
<trkpt lat="48.346410" lon="9.968830"><ele>491</ele><time>2015-05-06T05:45:51Z</time></trkpt>
<trkpt lat="48.346120" lon="9.968300"><ele>491</ele><time>2015-05-06T05:45:51Z</time></trkpt>
<trkpt lat="48.344390" lon="9.967720"><ele>491</ele><time>2015-05-06T05:45:51Z</time></trkpt>
<trkpt lat="48.343500" lon="9.967400"><ele>491</ele><time>2015-05-06T05:45:51Z</time></trkpt>
<trkpt lat="48.342450" lon="9.966580"><ele>491</ele><time>2015-05-06T05:45:51Z</time></trkpt>
<trkpt lat="48.341480" lon="9.966310"><ele>492</ele><time>2015-05-06T05:45:51Z</time></trkpt>
<trkpt lat="48.340150" lon="9.967340"><ele>495</ele><time>2015-05-06T05:45:51Z</time></trkpt>
<trkpt lat="48.339350" lon="9.963580"><ele>493</ele><time>2015-05-06T05:45:51Z</time></trkpt>
<trkpt lat="48.338220" lon="9.958360"><ele>494</ele><time>2015-05-06T05:45:51Z</time></trkpt>
<trkpt lat="48.337670" lon="9.954980"><ele>495</ele><time>2015-05-06T05:45:51Z</time></trkpt>
<trkpt lat="48.338580" lon="9.953240"><ele>493</ele><time>2015-05-06T05:45:51Z</time></trkpt>
<trkpt lat="48.339410" lon="9.950420"><ele>492</ele><time>2015-05-06T05:45:51Z</time></trkpt>
<trkpt lat="48.340470" lon="9.947740"><ele>486</ele><time>2015-05-06T05:45:51Z</time></trkpt>
<trkpt lat="48.340980" lon="9.945660"><ele>485</ele><time>2015-05-06T05:45:51Z</time></trkpt>
<trkpt lat="48.340720" lon="9.945090"><ele>485</ele><time>2015-05-06T05:45:51Z</time></trkpt>
<trkpt lat="48.341050" lon="9.942670"><ele>484</ele><time>2015-05-06T05:45:51Z</time></trkpt>
<trkpt lat="48.341230" lon="9.940720"><ele>482</ele><time>2015-05-06T05:45:51Z</time></trkpt>
<trkpt lat="48.340660" lon="9.940370"><ele>483</ele><time>2015-05-06T05:45:51Z</time></trkpt>
<trkpt lat="48.339770" lon="9.939680"><ele>484</ele><time>2015-05-06T05:45:51Z</time></trkpt>
<trkpt lat="48.338340" lon="9.939110"><ele>485</ele><time>2015-05-06T05:45:51Z</time></trkpt>
<trkpt lat="48.337350" lon="9.937110"><ele>477</ele><time>2015-05-06T05:45:51Z</time></trkpt>
<trkpt lat="48.336610" lon="9.935880"><ele>480</ele><time>2015-05-06T05:45:51Z</time></trkpt>
<trkpt lat="48.335710" lon="9.935430"><ele>486</ele><time>2015-05-06T05:45:51Z</time></trkpt>
<trkpt lat="48.334220" lon="9.934960"><ele>486</ele><time>2015-05-06T05:45:51Z</time></trkpt>
<trkpt lat="48.333070" lon="9.934160"><ele>486</ele><time>2015-05-06T05:45:51Z</time></trkpt>
<trkpt lat="48.332010" lon="9.933170"><ele>487</ele><time>2015-05-06T05:45:51Z</time></trkpt>
<trkpt lat="48.331290" lon="9.932890"><ele>487</ele><time>2015-05-06T05:45:51Z</time></trkpt>
<trkpt lat="48.330070" lon="9.932800"><ele>485</ele><time>2015-05-06T05:45:51Z</time></trkpt>
<trkpt lat="48.329560" lon="9.932210"><ele>486</ele><time>2015-05-06T05:45:51Z</time></trkpt>
<trkpt lat="48.329230" lon="9.931200"><ele>487</ele><time>2015-05-06T05:45:51Z</time></trkpt>
<trkpt lat="48.328970" lon="9.930850"><ele>487</ele><time>2015-05-06T05:45:51Z</time></trkpt>
<trkpt lat="48.327970" lon="9.931580"><ele>486</ele><time>2015-05-06T05:45:51Z</time></trkpt>
<trkpt lat="48.327440" lon="9.930150"><ele>481</ele><time>2015-05-06T05:45:51Z</time></trkpt>
<trkpt lat="48.327070" lon="9.929030"><ele>478</ele><time>2015-05-06T05:45:51Z</time></trkpt>
<trkpt lat="48.327520" lon="9.928800"><ele>477</ele><time>2015-05-06T05:45:51Z</time></trkpt>
<trkpt lat="48.327680" lon="9.928270"><ele>476</ele><time>2015-05-06T05:45:51Z</time></trkpt>
<trkpt lat="48.327060" lon="9.927680"><ele>475</ele><time>2015-05-06T05:45:51Z</time></trkpt>
<trkpt lat="48.326340" lon="9.926760"><ele>482</ele><time>2015-05-06T05:45:51Z</time></trkpt>
<trkpt lat="48.325540" lon="9.925800"><ele>482</ele><time>2015-05-06T05:45:51Z</time></trkpt>
<trkpt lat="48.324640" lon="9.925160"><ele>480</ele><time>2015-05-06T05:45:51Z</time></trkpt>
<trkpt lat="48.324170" lon="9.924820"><ele>479</ele><time>2015-05-06T05:45:51Z</time></trkpt>
<trkpt lat="48.323840" lon="9.924340"><ele>479</ele><time>2015-05-06T05:45:51Z</time></trkpt>
<trkpt lat="48.324050" lon="9.923470"><ele>478</ele><time>2015-05-06T05:45:51Z</time></trkpt>
<trkpt lat="48.323800" lon="9.922360"><ele>476</ele><time>2015-05-06T05:45:51Z</time></trkpt>
<trkpt lat="48.323340" lon="9.921630"><ele>475</ele><time>2015-05-06T05:45:51Z</time></trkpt>
<trkpt lat="48.321130" lon="9.919640"><ele>478</ele><time>2015-05-06T05:45:51Z</time></trkpt>
<trkpt lat="48.318900" lon="9.917610"><ele>479</ele><time>2015-05-06T05:45:51Z</time></trkpt>
<trkpt lat="48.316610" lon="9.915430"><ele>479</ele><time>2015-05-06T05:45:51Z</time></trkpt>
<trkpt lat="48.315630" lon="9.914060"><ele>480</ele><time>2015-05-06T05:45:51Z</time></trkpt>
<trkpt lat="48.314970" lon="9.912230"><ele>479</ele><time>2015-05-06T05:45:51Z</time></trkpt>
<trkpt lat="48.314320" lon="9.909590"><ele>480</ele><time>2015-05-06T05:45:51Z</time></trkpt>
<trkpt lat="48.313840" lon="9.907290"><ele>480</ele><time>2015-05-06T05:45:51Z</time></trkpt>
<trkpt lat="48.312810" lon="9.907400"><ele>480</ele><time>2015-05-06T05:45:51Z</time></trkpt>
<trkpt lat="48.311550" lon="9.907100"><ele>480</ele><time>2015-05-06T05:45:51Z</time></trkpt>
<trkpt lat="48.310590" lon="9.906640"><ele>480</ele><time>2015-05-06T05:45:51Z</time></trkpt>
<trkpt lat="48.309380" lon="9.905640"><ele>481</ele><time>2015-05-06T05:45:51Z</time></trkpt>
<trkpt lat="48.307730" lon="9.904370"><ele>481</ele><time>2015-05-06T05:45:51Z</time></trkpt>
<trkpt lat="48.306660" lon="9.903000"><ele>483</ele><time>2015-05-06T05:45:51Z</time></trkpt>
<trkpt lat="48.305380" lon="9.902370"><ele>484</ele><time>2015-05-06T05:45:51Z</time></trkpt>
<trkpt lat="48.304730" lon="9.902190"><ele>485</ele><time>2015-05-06T05:45:51Z</time></trkpt>
<trkpt lat="48.304120" lon="9.902650"><ele>486</ele><time>2015-05-06T05:45:51Z</time></trkpt>
<trkpt lat="48.303720" lon="9.902120"><ele>485</ele><time>2015-05-06T05:45:51Z</time></trkpt>
<trkpt lat="48.303680" lon="9.901220"><ele>484</ele><time>2015-05-06T05:45:51Z</time></trkpt>
<trkpt lat="48.303690" lon="9.900580"><ele>482</ele><time>2015-05-06T05:45:51Z</time></trkpt>
<trkpt lat="48.303400" lon="9.899870"><ele>482</ele><time>2015-05-06T05:45:51Z</time></trkpt>
<trkpt lat="48.302170" lon="9.899940"><ele>486</ele><time>2015-05-06T05:45:51Z</time></trkpt>
<trkpt lat="48.301600" lon="9.900380"><ele>486</ele><time>2015-05-06T05:45:51Z</time></trkpt>
<trkpt lat="48.300180" lon="9.900240"><ele>484</ele><time>2015-05-06T05:45:51Z</time></trkpt>
<trkpt lat="48.299240" lon="9.900220"><ele>485</ele><time>2015-05-06T05:45:51Z</time></trkpt>
<trkpt lat="48.297620" lon="9.900600"><ele>491</ele><time>2015-05-06T05:45:51Z</time></trkpt>
<trkpt lat="48.295900" lon="9.901310"><ele>492</ele><time>2015-05-06T05:45:51Z</time></trkpt>
<trkpt lat="48.294280" lon="9.902220"><ele>493</ele><time>2015-05-06T05:45:51Z</time></trkpt>
<trkpt lat="48.293330" lon="9.902210"><ele>493</ele><time>2015-05-06T05:45:51Z</time></trkpt>
<trkpt lat="48.291310" lon="9.901970"><ele>495</ele><time>2015-05-06T05:45:51Z</time></trkpt>
<trkpt lat="48.289020" lon="9.901460"><ele>497</ele><time>2015-05-06T05:45:51Z</time></trkpt>
<trkpt lat="48.288300" lon="9.901710"><ele>497</ele><time>2015-05-06T05:45:51Z</time></trkpt>
<trkpt lat="48.287040" lon="9.902160"><ele>497</ele><time>2015-05-06T05:45:51Z</time></trkpt>
<trkpt lat="48.286090" lon="9.902420"><ele>497</ele><time>2015-05-06T05:45:51Z</time></trkpt>
<trkpt lat="48.284430" lon="9.902460"><ele>497</ele><time>2015-05-06T05:45:51Z</time></trkpt>
<trkpt lat="48.282450" lon="9.902560"><ele>497</ele><time>2015-05-06T05:45:51Z</time></trkpt>
<trkpt lat="48.281340" lon="9.902610"><ele>498</ele><time>2015-05-06T05:45:51Z</time></trkpt>
<trkpt lat="48.280120" lon="9.902590"><ele>496</ele><time>2015-05-06T05:45:51Z</time></trkpt>
<trkpt lat="48.280310" lon="9.906020"><ele>498</ele><time>2015-05-06T05:45:51Z</time></trkpt>
<trkpt lat="48.279860" lon="9.906350"><ele>497</ele><time>2015-05-06T05:45:51Z</time></trkpt>
<trkpt lat="48.280700" lon="9.909780"><ele>500</ele><time>2015-05-06T05:45:51Z</time></trkpt>
<trkpt lat="48.281440" lon="9.912380"><ele>503</ele><time>2015-05-06T05:45:51Z</time></trkpt>
<trkpt lat="48.281670" lon="9.913840"><ele>503</ele><time>2015-05-06T05:45:51Z</time></trkpt>
<trkpt lat="48.281230" lon="9.915510"><ele>511</ele><time>2015-05-06T05:45:51Z</time></trkpt>
<trkpt lat="48.280850" lon="9.916740"><ele>508</ele><time>2015-05-06T05:45:51Z</time></trkpt>
<trkpt lat="48.280660" lon="9.918760"><ele>514</ele><time>2015-05-06T05:45:51Z</time></trkpt>
<trkpt lat="48.280190" lon="9.920370"><ele>515</ele><time>2015-05-06T05:45:51Z</time></trkpt>
<trkpt lat="48.279780" lon="9.921980"><ele>516</ele><time>2015-05-06T05:45:51Z</time></trkpt>
<trkpt lat="48.280030" lon="9.923800"><ele>516</ele><time>2015-05-06T05:45:51Z</time></trkpt>
<trkpt lat="48.281000" lon="9.926720"><ele>517</ele><time>2015-05-06T05:45:51Z</time></trkpt>
<trkpt lat="48.281470" lon="9.929820"><ele>517</ele><time>2015-05-06T05:45:51Z</time></trkpt>
<trkpt lat="48.281750" lon="9.933940"><ele>513</ele><time>2015-05-06T05:45:51Z</time></trkpt>
<trkpt lat="48.281780" lon="9.936030"><ele>511</ele><time>2015-05-06T05:45:51Z</time></trkpt>
<trkpt lat="48.281640" lon="9.937520"><ele>508</ele><time>2015-05-06T05:45:51Z</time></trkpt>
<trkpt lat="48.281770" lon="9.938700"><ele>506</ele><time>2015-05-06T05:45:51Z</time></trkpt>
<trkpt lat="48.282010" lon="9.939510"><ele>506</ele><time>2015-05-06T05:45:51Z</time></trkpt>
<trkpt lat="48.281640" lon="9.940040"><ele>507</ele><time>2015-05-06T05:45:51Z</time></trkpt>
<trkpt lat="48.281020" lon="9.940320"><ele>510</ele><time>2015-05-06T05:45:51Z</time></trkpt>
<trkpt lat="48.281000" lon="9.941240"><ele>509</ele><time>2015-05-06T05:45:51Z</time></trkpt>
<trkpt lat="48.280530" lon="9.941810"><ele>509</ele><time>2015-05-06T05:45:51Z</time></trkpt>
<trkpt lat="48.281220" lon="9.943560"><ele>504</ele><time>2015-05-06T05:45:51Z</time></trkpt>
<trkpt lat="48.281700" lon="9.944990"><ele>508</ele><time>2015-05-06T05:45:51Z</time></trkpt>
<trkpt lat="48.282220" lon="9.945910"><ele>511</ele><time>2015-05-06T05:45:51Z</time></trkpt>
<trkpt lat="48.282260" lon="9.947400"><ele>518</ele><time>2015-05-06T05:45:51Z</time></trkpt>
<trkpt lat="48.282170" lon="9.948700"><ele>524</ele><time>2015-05-06T05:45:51Z</time></trkpt>
<trkpt lat="48.282290" lon="9.949780"><ele>532</ele><time>2015-05-06T05:45:51Z</time></trkpt>
<trkpt lat="48.282770" lon="9.950200"><ele>542</ele><time>2015-05-06T05:45:51Z</time></trkpt>
<trkpt lat="48.283130" lon="9.952020"><ele>542</ele><time>2015-05-06T05:45:51Z</time></trkpt>
<trkpt lat="48.284110" lon="9.954440"><ele>541</ele><time>2015-05-06T05:45:51Z</time></trkpt>
<trkpt lat="48.284150" lon="9.957570"><ele>541</ele><time>2015-05-06T05:45:51Z</time></trkpt>
<trkpt lat="48.284220" lon="9.959830"><ele>540</ele><time>2015-05-06T05:45:51Z</time></trkpt>
<trkpt lat="48.284310" lon="9.961940"><ele>539</ele><time>2015-05-06T05:45:51Z</time></trkpt>
<trkpt lat="48.282950" lon="9.963000"><ele>537</ele><time>2015-05-06T05:45:51Z</time></trkpt>
<trkpt lat="48.281400" lon="9.964990"><ele>529</ele><time>2015-05-06T05:45:51Z</time></trkpt>
<trkpt lat="48.280810" lon="9.966190"><ele>527</ele><time>2015-05-06T05:45:51Z</time></trkpt>
<trkpt lat="48.280610" lon="9.967800"><ele>531</ele><time>2015-05-06T05:45:51Z</time></trkpt>
<trkpt lat="48.280300" lon="9.969170"><ele>531</ele><time>2015-05-06T05:45:51Z</time></trkpt>
<trkpt lat="48.280160" lon="9.970250"><ele>527</ele><time>2015-05-06T05:45:51Z</time></trkpt>
<trkpt lat="48.279790" lon="9.971050"><ele>523</ele><time>2015-05-06T05:45:51Z</time></trkpt>
<trkpt lat="48.280220" lon="9.972250"><ele>521</ele><time>2015-05-06T05:45:51Z</time></trkpt>
<trkpt lat="48.280710" lon="9.974300"><ele>522</ele><time>2015-05-06T05:45:51Z</time></trkpt>
<trkpt lat="48.280770" lon="9.976240"><ele>528</ele><time>2015-05-06T05:45:51Z</time></trkpt>
<trkpt lat="48.280230" lon="9.977900"><ele>534</ele><time>2015-05-06T05:45:51Z</time></trkpt>
<trkpt lat="48.279830" lon="9.979170"><ele>537</ele><time>2015-05-06T05:45:51Z</time></trkpt>
<trkpt lat="48.278560" lon="9.980590"><ele>540</ele><time>2015-05-06T05:45:51Z</time></trkpt>
<trkpt lat="48.277070" lon="9.981270"><ele>541</ele><time>2015-05-06T05:45:51Z</time></trkpt>
<trkpt lat="48.276280" lon="9.981730"><ele>541</ele><time>2015-05-06T05:45:51Z</time></trkpt>
<trkpt lat="48.274900" lon="9.983450"><ele>541</ele><time>2015-05-06T05:45:51Z</time></trkpt>
<trkpt lat="48.273680" lon="9.985820"><ele>537</ele><time>2015-05-06T05:45:51Z</time></trkpt>
<trkpt lat="48.272940" lon="9.987540"><ele>540</ele><time>2015-05-06T05:45:51Z</time></trkpt>
<trkpt lat="48.272230" lon="9.987920"><ele>539</ele><time>2015-05-06T05:45:51Z</time></trkpt>
<trkpt lat="48.272460" lon="9.989640"><ele>535</ele><time>2015-05-06T05:45:51Z</time></trkpt>
<trkpt lat="48.272630" lon="9.991370"><ele>525</ele><time>2015-05-06T05:45:51Z</time></trkpt>
<trkpt lat="48.272570" lon="9.992840"><ele>519</ele><time>2015-05-06T05:45:51Z</time></trkpt>
<trkpt lat="48.272980" lon="9.994030"><ele>516</ele><time>2015-05-06T05:45:51Z</time></trkpt>
<trkpt lat="48.272930" lon="9.994740"><ele>513</ele><time>2015-05-06T05:45:51Z</time></trkpt>
<trkpt lat="48.271920" lon="9.995220"><ele>510</ele><time>2015-05-06T05:45:51Z</time></trkpt>
<trkpt lat="48.271820" lon="9.996160"><ele>509</ele><time>2015-05-06T05:45:51Z</time></trkpt>
<trkpt lat="48.271650" lon="9.997140"><ele>510</ele><time>2015-05-06T05:45:51Z</time></trkpt>
<trkpt lat="48.271010" lon="9.998370"><ele>510</ele><time>2015-05-06T05:45:51Z</time></trkpt>
<trkpt lat="48.270420" lon="9.999130"><ele>506</ele><time>2015-05-06T05:45:51Z</time></trkpt>
<trkpt lat="48.269050" lon="10.000030"><ele>508</ele><time>2015-05-06T05:45:51Z</time></trkpt>
<trkpt lat="48.267560" lon="10.000880"><ele>511</ele><time>2015-05-06T05:45:51Z</time></trkpt>
<trkpt lat="48.266390" lon="10.001630"><ele>509</ele><time>2015-05-06T05:45:51Z</time></trkpt>
<trkpt lat="48.265800" lon="10.002090"><ele>506</ele><time>2015-05-06T05:45:51Z</time></trkpt>
<trkpt lat="48.265450" lon="10.003160"><ele>505</ele><time>2015-05-06T05:45:51Z</time></trkpt>
<trkpt lat="48.265610" lon="10.005520"><ele>506</ele><time>2015-05-06T05:45:51Z</time></trkpt>
<trkpt lat="48.265930" lon="10.007240"><ele>509</ele><time>2015-05-06T05:45:51Z</time></trkpt>
<trkpt lat="48.265900" lon="10.008860"><ele>521</ele><time>2015-05-06T05:45:51Z</time></trkpt>
<trkpt lat="48.265990" lon="10.010870"><ele>525</ele><time>2015-05-06T05:45:51Z</time></trkpt>
<trkpt lat="48.266680" lon="10.014260"><ele>540</ele><time>2015-05-06T05:45:51Z</time></trkpt>
<trkpt lat="48.266850" lon="10.015580"><ele>545</ele><time>2015-05-06T05:45:51Z</time></trkpt>
<trkpt lat="48.267040" lon="10.018970"><ele>551</ele><time>2015-05-06T05:45:51Z</time></trkpt>
<trkpt lat="48.266960" lon="10.022810"><ele>549</ele><time>2015-05-06T05:45:51Z</time></trkpt>
<trkpt lat="48.266350" lon="10.026400"><ele>547</ele><time>2015-05-06T05:45:51Z</time></trkpt>
<trkpt lat="48.266170" lon="10.028920"><ele>547</ele><time>2015-05-06T05:45:51Z</time></trkpt>
<trkpt lat="48.266300" lon="10.031290"><ele>549</ele><time>2015-05-06T05:45:51Z</time></trkpt>
<trkpt lat="48.266640" lon="10.033450"><ele>552</ele><time>2015-05-06T05:45:51Z</time></trkpt>
<trkpt lat="48.267160" lon="10.035480"><ele>551</ele><time>2015-05-06T05:45:51Z</time></trkpt>
<trkpt lat="48.267260" lon="10.036990"><ele>548</ele><time>2015-05-06T05:45:51Z</time></trkpt>
<trkpt lat="48.267250" lon="10.038240"><ele>542</ele><time>2015-05-06T05:45:51Z</time></trkpt>
<trkpt lat="48.267830" lon="10.039260"><ele>535</ele><time>2015-05-06T05:45:51Z</time></trkpt>
<trkpt lat="48.269150" lon="10.040260"><ele>522</ele><time>2015-05-06T05:45:51Z</time></trkpt>
<trkpt lat="48.269750" lon="10.041080"><ele>518</ele><time>2015-05-06T05:45:51Z</time></trkpt>
<trkpt lat="48.270180" lon="10.042740"><ele>515</ele><time>2015-05-06T05:45:51Z</time></trkpt>
<trkpt lat="48.270420" lon="10.043790"><ele>513</ele><time>2015-05-06T05:45:51Z</time></trkpt>
<trkpt lat="48.270710" lon="10.044100"><ele>513</ele><time>2015-05-06T05:45:51Z</time></trkpt>
<trkpt lat="48.270670" lon="10.045580"><ele>506</ele><time>2015-05-06T05:45:51Z</time></trkpt>
<trkpt lat="48.270930" lon="10.046930"><ele>501</ele><time>2015-05-06T05:45:51Z</time></trkpt>
<trkpt lat="48.271100" lon="10.047610"><ele>500</ele><time>2015-05-06T05:45:51Z</time></trkpt>
<trkpt lat="48.270910" lon="10.049090"><ele>498</ele><time>2015-05-06T05:45:51Z</time></trkpt>
<trkpt lat="48.270980" lon="10.051380"><ele>498</ele><time>2015-05-06T05:45:51Z</time></trkpt>
<trkpt lat="48.270780" lon="10.052790"><ele>497</ele><time>2015-05-06T05:45:51Z</time></trkpt>
<trkpt lat="48.271450" lon="10.054200"><ele>498</ele><time>2015-05-06T05:45:51Z</time></trkpt>
<trkpt lat="48.271930" lon="10.054980"><ele>497</ele><time>2015-05-06T05:45:51Z</time></trkpt>
<trkpt lat="48.272370" lon="10.056660"><ele>497</ele><time>2015-05-06T05:45:51Z</time></trkpt>
<trkpt lat="48.273070" lon="10.058900"><ele>497</ele><time>2015-05-06T05:45:51Z</time></trkpt>
<trkpt lat="48.273590" lon="10.060590"><ele>498</ele><time>2015-05-06T05:45:51Z</time></trkpt>
<trkpt lat="48.273850" lon="10.061670"><ele>499</ele><time>2015-05-06T05:45:51Z</time></trkpt>
<trkpt lat="48.273750" lon="10.063220"><ele>499</ele><time>2015-05-06T05:45:51Z</time></trkpt>
<trkpt lat="48.273640" lon="10.064840"><ele>500</ele><time>2015-05-06T05:45:51Z</time></trkpt>
<trkpt lat="48.273590" lon="10.065850"><ele>495</ele><time>2015-05-06T05:45:51Z</time></trkpt>
<trkpt lat="48.273790" lon="10.067800"><ele>497</ele><time>2015-05-06T05:45:51Z</time></trkpt>
<trkpt lat="48.274220" lon="10.070300"><ele>498</ele><time>2015-05-06T05:45:51Z</time></trkpt>
<trkpt lat="48.274540" lon="10.071970"><ele>498</ele><time>2015-05-06T05:45:51Z</time></trkpt>
<trkpt lat="48.274650" lon="10.072680"><ele>499</ele><time>2015-05-06T05:45:51Z</time></trkpt>
<trkpt lat="48.273520" lon="10.073400"><ele>498</ele><time>2015-05-06T05:45:51Z</time></trkpt>
<trkpt lat="48.272660" lon="10.073750"><ele>498</ele><time>2015-05-06T05:45:51Z</time></trkpt>
<trkpt lat="48.271510" lon="10.073730"><ele>499</ele><time>2015-05-06T05:45:51Z</time></trkpt>
<trkpt lat="48.271130" lon="10.073490"><ele>500</ele><time>2015-05-06T05:45:51Z</time></trkpt>
<trkpt lat="48.270970" lon="10.073990"><ele>499</ele><time>2015-05-06T05:45:51Z</time></trkpt>
<trkpt lat="48.270450" lon="10.074250"><ele>499</ele><time>2015-05-06T05:45:51Z</time></trkpt>
<trkpt lat="48.269770" lon="10.074970"><ele>499</ele><time>2015-05-06T05:45:51Z</time></trkpt>
<trkpt lat="48.269160" lon="10.075800"><ele>500</ele><time>2015-05-06T05:45:51Z</time></trkpt>
<trkpt lat="48.268410" lon="10.076630"><ele>500</ele><time>2015-05-06T05:45:51Z</time></trkpt>
<trkpt lat="48.268020" lon="10.077190"><ele>500</ele><time>2015-05-06T05:45:51Z</time></trkpt>
<trkpt lat="48.267550" lon="10.076950"><ele>500</ele><time>2015-05-06T05:45:51Z</time></trkpt>
<trkpt lat="48.266920" lon="10.077270"><ele>500</ele><time>2015-05-06T05:45:51Z</time></trkpt>
<trkpt lat="48.266460" lon="10.077830"><ele>500</ele><time>2015-05-06T05:45:51Z</time></trkpt>
<trkpt lat="48.266450" lon="10.078510"><ele>500</ele><time>2015-05-06T05:45:51Z</time></trkpt>
<trkpt lat="48.267400" lon="10.078120"><ele>500</ele><time>2015-05-06T05:45:51Z</time></trkpt>
<trkpt lat="48.267970" lon="10.077490"><ele>500</ele><time>2015-05-06T05:45:51Z</time></trkpt>
<trkpt lat="48.269500" lon="10.075440"><ele>500</ele><time>2015-05-06T05:45:51Z</time></trkpt>
<trkpt lat="48.270840" lon="10.074020"><ele>499</ele><time>2015-05-06T05:45:51Z</time></trkpt>
<trkpt lat="48.273370" lon="10.074710"><ele>499</ele><time>2015-05-06T05:45:51Z</time></trkpt>
<trkpt lat="48.274110" lon="10.075060"><ele>499</ele><time>2015-05-06T05:45:51Z</time></trkpt>
<trkpt lat="48.274660" lon="10.075720"><ele>499</ele><time>2015-05-06T05:45:51Z</time></trkpt>
<trkpt lat="48.276180" lon="10.075280"><ele>498</ele><time>2015-05-06T05:45:51Z</time></trkpt>
<trkpt lat="48.276580" lon="10.075590"><ele>498</ele><time>2015-05-06T05:45:51Z</time></trkpt>
<trkpt lat="48.276680" lon="10.076160"><ele>498</ele><time>2015-05-06T05:45:51Z</time></trkpt>
<trkpt lat="48.277130" lon="10.076070"><ele>498</ele><time>2015-05-06T05:45:51Z</time></trkpt>
<trkpt lat="48.277350" lon="10.076920"><ele>498</ele><time>2015-05-06T05:45:51Z</time></trkpt>
<trkpt lat="48.277200" lon="10.078870"><ele>499</ele><time>2015-05-06T05:45:51Z</time></trkpt>
<trkpt lat="48.278240" lon="10.078540"><ele>498</ele><time>2015-05-06T05:45:51Z</time></trkpt>
<trkpt lat="48.280850" lon="10.077700"><ele>498</ele><time>2015-05-06T05:45:51Z</time></trkpt>
<trkpt lat="48.282830" lon="10.078180"><ele>498</ele><time>2015-05-06T05:45:51Z</time></trkpt>
<trkpt lat="48.284220" lon="10.077800"><ele>497</ele><time>2015-05-06T05:45:51Z</time></trkpt>
<trkpt lat="48.285710" lon="10.077400"><ele>497</ele><time>2015-05-06T05:45:51Z</time></trkpt>
<trkpt lat="48.286290" lon="10.077850"><ele>497</ele><time>2015-05-06T05:45:51Z</time></trkpt>
<trkpt lat="48.288140" lon="10.077580"><ele>496</ele><time>2015-05-06T05:45:51Z</time></trkpt>
<trkpt lat="48.288610" lon="10.077690"><ele>497</ele><time>2015-05-06T05:45:51Z</time></trkpt>
<trkpt lat="48.288810" lon="10.077280"><ele>497</ele><time>2015-05-06T05:45:51Z</time></trkpt>
<trkpt lat="48.288700" lon="10.076820"><ele>496</ele><time>2015-05-06T05:45:51Z</time></trkpt>
<trkpt lat="48.291080" lon="10.076260"><ele>496</ele><time>2015-05-06T05:45:51Z</time></trkpt>
<trkpt lat="48.292150" lon="10.075710"><ele>496</ele><time>2015-05-06T05:45:51Z</time></trkpt>
<trkpt lat="48.293210" lon="10.074930"><ele>496</ele><time>2015-05-06T05:45:51Z</time></trkpt>
<trkpt lat="48.293800" lon="10.074800"><ele>496</ele><time>2015-05-06T05:45:51Z</time></trkpt>
<trkpt lat="48.294060" lon="10.075180"><ele>498</ele><time>2015-05-06T05:45:51Z</time></trkpt>
<trkpt lat="48.294300" lon="10.075860"><ele>495</ele><time>2015-05-06T05:45:51Z</time></trkpt>
<trkpt lat="48.293730" lon="10.076790"><ele>495</ele><time>2015-05-06T05:45:51Z</time></trkpt>
<trkpt lat="48.293130" lon="10.078360"><ele>496</ele><time>2015-05-06T05:45:51Z</time></trkpt>
<trkpt lat="48.293050" lon="10.080210"><ele>498</ele><time>2015-05-06T05:45:51Z</time></trkpt>
<trkpt lat="48.293100" lon="10.082200"><ele>495</ele><time>2015-05-06T05:45:51Z</time></trkpt>
<trkpt lat="48.293090" lon="10.083410"><ele>495</ele><time>2015-05-06T05:45:51Z</time></trkpt>
<trkpt lat="48.292660" lon="10.085060"><ele>495</ele><time>2015-05-06T05:45:51Z</time></trkpt>
<trkpt lat="48.292960" lon="10.087220"><ele>495</ele><time>2015-05-06T05:45:51Z</time></trkpt>
<trkpt lat="48.296350" lon="10.086120"><ele>495</ele><time>2015-05-06T05:45:51Z</time></trkpt>
<trkpt lat="48.296680" lon="10.086390"><ele>495</ele><time>2015-05-06T05:45:51Z</time></trkpt>
<trkpt lat="48.297100" lon="10.087760"><ele>495</ele><time>2015-05-06T05:45:51Z</time></trkpt>
<trkpt lat="48.297760" lon="10.089460"><ele>495</ele><time>2015-05-06T05:45:51Z</time></trkpt>
<trkpt lat="48.297550" lon="10.092350"><ele>497</ele><time>2015-05-06T05:45:51Z</time></trkpt>
<trkpt lat="48.297670" lon="10.094440"><ele>498</ele><time>2015-05-06T05:45:51Z</time></trkpt>
<trkpt lat="48.298090" lon="10.096260"><ele>504</ele><time>2015-05-06T05:45:51Z</time></trkpt>
<trkpt lat="48.298280" lon="10.097180"><ele>510</ele><time>2015-05-06T05:45:51Z</time></trkpt>
<trkpt lat="48.298020" lon="10.098490"><ele>511</ele><time>2015-05-06T05:45:51Z</time></trkpt>
<trkpt lat="48.297030" lon="10.100430"><ele>523</ele><time>2015-05-06T05:45:51Z</time></trkpt>
<trkpt lat="48.296340" lon="10.101560"><ele>528</ele><time>2015-05-06T05:45:51Z</time></trkpt>
<trkpt lat="48.296100" lon="10.103510"><ele>534</ele><time>2015-05-06T05:45:51Z</time></trkpt>
<trkpt lat="48.296140" lon="10.104650"><ele>537</ele><time>2015-05-06T05:45:51Z</time></trkpt>
<trkpt lat="48.297310" lon="10.104700"><ele>538</ele><time>2015-05-06T05:45:51Z</time></trkpt>
<trkpt lat="48.298460" lon="10.104490"><ele>537</ele><time>2015-05-06T05:45:51Z</time></trkpt>
<trkpt lat="48.298720" lon="10.105540"><ele>537</ele><time>2015-05-06T05:45:51Z</time></trkpt>
<trkpt lat="48.299440" lon="10.105190"><ele>536</ele><time>2015-05-06T05:45:51Z</time></trkpt>
<trkpt lat="48.300230" lon="10.105370"><ele>536</ele><time>2015-05-06T05:45:51Z</time></trkpt>
<trkpt lat="48.301120" lon="10.105660"><ele>536</ele><time>2015-05-06T05:45:51Z</time></trkpt>
<trkpt lat="48.302310" lon="10.106460"><ele>531</ele><time>2015-05-06T05:45:51Z</time></trkpt>
<trkpt lat="48.303510" lon="10.106460"><ele>532</ele><time>2015-05-06T05:45:51Z</time></trkpt>
<trkpt lat="48.305190" lon="10.105010"><ele>534</ele><time>2015-05-06T05:45:51Z</time></trkpt>
<trkpt lat="48.306370" lon="10.103990"><ele>533</ele><time>2015-05-06T05:45:51Z</time></trkpt>
<trkpt lat="48.307610" lon="10.103340"><ele>533</ele><time>2015-05-06T05:45:51Z</time></trkpt>
<trkpt lat="48.311080" lon="10.102410"><ele>537</ele><time>2015-05-06T05:45:51Z</time></trkpt>
<trkpt lat="48.313840" lon="10.101020"><ele>531</ele><time>2015-05-06T05:45:51Z</time></trkpt>
<trkpt lat="48.315610" lon="10.099670"><ele>527</ele><time>2015-05-06T05:45:51Z</time></trkpt>
<trkpt lat="48.316430" lon="10.098480"><ele>524</ele><time>2015-05-06T05:45:51Z</time></trkpt>
<trkpt lat="48.316840" lon="10.097610"><ele>523</ele><time>2015-05-06T05:45:51Z</time></trkpt>
<trkpt lat="48.317160" lon="10.096480"><ele>524</ele><time>2015-05-06T05:45:51Z</time></trkpt>
<trkpt lat="48.317270" lon="10.095290"><ele>522</ele><time>2015-05-06T05:45:51Z</time></trkpt>
<trkpt lat="48.317520" lon="10.094830"><ele>520</ele><time>2015-05-06T05:45:51Z</time></trkpt>
<trkpt lat="48.317620" lon="10.098500"><ele>528</ele><time>2015-05-06T05:45:51Z</time></trkpt>
<trkpt lat="48.317690" lon="10.102490"><ele>528</ele><time>2015-05-06T05:45:51Z</time></trkpt>
<trkpt lat="48.319050" lon="10.101840"><ele>531</ele><time>2015-05-06T05:45:51Z</time></trkpt>
<trkpt lat="48.320140" lon="10.100320"><ele>531</ele><time>2015-05-06T05:45:51Z</time></trkpt>
<trkpt lat="48.321010" lon="10.098510"><ele>534</ele><time>2015-05-06T05:45:51Z</time></trkpt>
<trkpt lat="48.322280" lon="10.097130"><ele>534</ele><time>2015-05-06T05:45:51Z</time></trkpt>
<trkpt lat="48.323830" lon="10.095880"><ele>534</ele><time>2015-05-06T05:45:51Z</time></trkpt>
<trkpt lat="48.324910" lon="10.095700"><ele>533</ele><time>2015-05-06T05:45:51Z</time></trkpt>
<trkpt lat="48.326120" lon="10.095650"><ele>531</ele><time>2015-05-06T05:45:51Z</time></trkpt>
<trkpt lat="48.326770" lon="10.095430"><ele>530</ele><time>2015-05-06T05:45:51Z</time></trkpt>
<trkpt lat="48.327780" lon="10.095690"><ele>527</ele><time>2015-05-06T05:45:51Z</time></trkpt>
<trkpt lat="48.328680" lon="10.095710"><ele>526</ele><time>2015-05-06T05:45:51Z</time></trkpt>
<trkpt lat="48.333870" lon="10.096090"><ele>524</ele><time>2015-05-06T05:45:51Z</time></trkpt>
<trkpt lat="48.336700" lon="10.096220"><ele>523</ele><time>2015-05-06T05:45:51Z</time></trkpt>
<trkpt lat="48.339070" lon="10.096130"><ele>521</ele><time>2015-05-06T05:45:51Z</time></trkpt>
<trkpt lat="48.340060" lon="10.095750"><ele>520</ele><time>2015-05-06T05:45:51Z</time></trkpt>
<trkpt lat="48.341700" lon="10.095590"><ele>518</ele><time>2015-05-06T05:45:51Z</time></trkpt>
<trkpt lat="48.343000" lon="10.095780"><ele>519</ele><time>2015-05-06T05:45:51Z</time></trkpt>
<trkpt lat="48.343900" lon="10.095860"><ele>517</ele><time>2015-05-06T05:45:51Z</time></trkpt>
<trkpt lat="48.344300" lon="10.096920"><ele>516</ele><time>2015-05-06T05:45:51Z</time></trkpt>
<trkpt lat="48.344600" lon="10.097670"><ele>513</ele><time>2015-05-06T05:45:51Z</time></trkpt>
<trkpt lat="48.345240" lon="10.097420"><ele>511</ele><time>2015-05-06T05:45:51Z</time></trkpt>
<trkpt lat="48.346010" lon="10.096290"><ele>516</ele><time>2015-05-06T05:45:51Z</time></trkpt>
<trkpt lat="48.346830" lon="10.095700"><ele>515</ele><time>2015-05-06T05:45:51Z</time></trkpt>
<trkpt lat="48.347430" lon="10.094560"><ele>514</ele><time>2015-05-06T05:45:51Z</time></trkpt>
<trkpt lat="48.348020" lon="10.093890"><ele>516</ele><time>2015-05-06T05:45:51Z</time></trkpt>
<trkpt lat="48.348870" lon="10.092260"><ele>519</ele><time>2015-05-06T05:45:51Z</time></trkpt>
<trkpt lat="48.349150" lon="10.091620"><ele>519</ele><time>2015-05-06T05:45:51Z</time></trkpt>
<trkpt lat="48.350800" lon="10.090580"><ele>520</ele><time>2015-05-06T05:45:51Z</time></trkpt>
<trkpt lat="48.352310" lon="10.089900"><ele>521</ele><time>2015-05-06T05:45:51Z</time></trkpt>
<trkpt lat="48.352710" lon="10.089170"><ele>521</ele><time>2015-05-06T05:45:51Z</time></trkpt>
<trkpt lat="48.354450" lon="10.088240"><ele>520</ele><time>2015-05-06T05:45:51Z</time></trkpt>
<trkpt lat="48.355860" lon="10.086650"><ele>517</ele><time>2015-05-06T05:45:51Z</time></trkpt>
<trkpt lat="48.356880" lon="10.083930"><ele>514</ele><time>2015-05-06T05:45:51Z</time></trkpt>
<trkpt lat="48.357440" lon="10.081710"><ele>516</ele><time>2015-05-06T05:45:51Z</time></trkpt>
<trkpt lat="48.358320" lon="10.078470"><ele>509</ele><time>2015-05-06T05:45:51Z</time></trkpt>
<trkpt lat="48.359380" lon="10.076200"><ele>502</ele><time>2015-05-06T05:45:51Z</time></trkpt>
<trkpt lat="48.360520" lon="10.074060"><ele>497</ele><time>2015-05-06T05:45:51Z</time></trkpt>
<trkpt lat="48.360730" lon="10.073230"><ele>496</ele><time>2015-05-06T05:45:51Z</time></trkpt>
<trkpt lat="48.360630" lon="10.072280"><ele>496</ele><time>2015-05-06T05:45:51Z</time></trkpt>
<trkpt lat="48.360990" lon="10.071650"><ele>496</ele><time>2015-05-06T05:45:51Z</time></trkpt>
<trkpt lat="48.361000" lon="10.070670"><ele>496</ele><time>2015-05-06T05:45:51Z</time></trkpt>
<trkpt lat="48.363640" lon="10.070090"><ele>491</ele><time>2015-05-06T05:45:51Z</time></trkpt>
<trkpt lat="48.364770" lon="10.069670"><ele>489</ele><time>2015-05-06T05:45:51Z</time></trkpt>
<trkpt lat="48.365440" lon="10.069280"><ele>488</ele><time>2015-05-06T05:45:51Z</time></trkpt>
<trkpt lat="48.366160" lon="10.070110"><ele>487</ele><time>2015-05-06T05:45:51Z</time></trkpt>
<trkpt lat="48.367300" lon="10.070500"><ele>488</ele><time>2015-05-06T05:45:51Z</time></trkpt>
<trkpt lat="48.369550" lon="10.070380"><ele>480</ele><time>2015-05-06T05:45:51Z</time></trkpt>
<trkpt lat="48.370850" lon="10.070710"><ele>480</ele><time>2015-05-06T05:45:51Z</time></trkpt>
<trkpt lat="48.371750" lon="10.070490"><ele>479</ele><time>2015-05-06T05:45:51Z</time></trkpt>
<trkpt lat="48.372730" lon="10.071360"><ele>481</ele><time>2015-05-06T05:45:51Z</time></trkpt>
<trkpt lat="48.374930" lon="10.074270"><ele>481</ele><time>2015-05-06T05:45:51Z</time></trkpt>
<trkpt lat="48.376560" lon="10.075660"><ele>482</ele><time>2015-05-06T05:45:51Z</time></trkpt>
<trkpt lat="48.377310" lon="10.076720"><ele>478</ele><time>2015-05-06T05:45:51Z</time></trkpt>
<trkpt lat="48.378190" lon="10.076970"><ele>481</ele><time>2015-05-06T05:45:51Z</time></trkpt>
<trkpt lat="48.379580" lon="10.076860"><ele>485</ele><time>2015-05-06T05:45:51Z</time></trkpt>
<trkpt lat="48.380980" lon="10.076750"><ele>483</ele><time>2015-05-06T05:45:51Z</time></trkpt>
<trkpt lat="48.381560" lon="10.076200"><ele>483</ele><time>2015-05-06T05:45:51Z</time></trkpt>
<trkpt lat="48.382280" lon="10.076150"><ele>483</ele><time>2015-05-06T05:45:51Z</time></trkpt>
<trkpt lat="48.382990" lon="10.076640"><ele>487</ele><time>2015-05-06T05:45:51Z</time></trkpt>
<trkpt lat="48.383630" lon="10.077860"><ele>482</ele><time>2015-05-06T05:45:51Z</time></trkpt>
<trkpt lat="48.384070" lon="10.078300"><ele>482</ele><time>2015-05-06T05:45:51Z</time></trkpt>
<trkpt lat="48.384450" lon="10.080340"><ele>482</ele><time>2015-05-06T05:45:51Z</time></trkpt>
<trkpt lat="48.386950" lon="10.082080"><ele>479</ele><time>2015-05-06T05:45:51Z</time></trkpt>
<trkpt lat="48.388240" lon="10.082930"><ele>481</ele><time>2015-05-06T05:45:51Z</time></trkpt>
<trkpt lat="48.389630" lon="10.083820"><ele>478</ele><time>2015-05-06T05:45:51Z</time></trkpt>
<trkpt lat="48.390650" lon="10.084830"><ele>475</ele><time>2015-05-06T05:45:51Z</time></trkpt>
<trkpt lat="48.391360" lon="10.085960"><ele>476</ele><time>2015-05-06T05:45:51Z</time></trkpt>
<trkpt lat="48.391930" lon="10.087330"><ele>476</ele><time>2015-05-06T05:45:51Z</time></trkpt>
<trkpt lat="48.392460" lon="10.090070"><ele>478</ele><time>2015-05-06T05:45:51Z</time></trkpt>
<trkpt lat="48.393200" lon="10.093360"><ele>479</ele><time>2015-05-06T05:45:51Z</time></trkpt>
<trkpt lat="48.394640" lon="10.097610"><ele>476</ele><time>2015-05-06T05:45:51Z</time></trkpt>
<trkpt lat="48.395580" lon="10.100810"><ele>470</ele><time>2015-05-06T05:45:51Z</time></trkpt>
<trkpt lat="48.396270" lon="10.103150"><ele>468</ele><time>2015-05-06T05:45:51Z</time></trkpt>
<trkpt lat="48.396800" lon="10.103500"><ele>467</ele><time>2015-05-06T05:45:51Z</time></trkpt>
<trkpt lat="48.397030" lon="10.103270"><ele>468</ele><time>2015-05-06T05:45:51Z</time></trkpt>
<trkpt lat="48.397650" lon="10.101090"><ele>468</ele><time>2015-05-06T05:45:51Z</time></trkpt>
<trkpt lat="48.398370" lon="10.098710"><ele>467</ele><time>2015-05-06T05:45:51Z</time></trkpt>
<trkpt lat="48.399900" lon="10.096340"><ele>467</ele><time>2015-05-06T05:45:51Z</time></trkpt>
<trkpt lat="48.400840" lon="10.094670"><ele>467</ele><time>2015-05-06T05:45:51Z</time></trkpt>
<trkpt lat="48.401770" lon="10.091890"><ele>467</ele><time>2015-05-06T05:45:51Z</time></trkpt>
<trkpt lat="48.402660" lon="10.089750"><ele>465</ele><time>2015-05-06T05:45:51Z</time></trkpt>
<trkpt lat="48.403940" lon="10.087510"><ele>465</ele><time>2015-05-06T05:45:51Z</time></trkpt>
<trkpt lat="48.404930" lon="10.085950"><ele>465</ele><time>2015-05-06T05:45:51Z</time></trkpt>
<trkpt lat="48.407010" lon="10.084510"><ele>466</ele><time>2015-05-06T05:45:51Z</time></trkpt>
<trkpt lat="48.408680" lon="10.083420"><ele>465</ele><time>2015-05-06T05:45:51Z</time></trkpt>
<trkpt lat="48.409600" lon="10.081690"><ele>466</ele><time>2015-05-06T05:45:51Z</time></trkpt>
<trkpt lat="48.410300" lon="10.078180"><ele>465</ele><time>2015-05-06T05:45:51Z</time></trkpt>
<trkpt lat="48.410660" lon="10.076380"><ele>465</ele><time>2015-05-06T05:45:51Z</time></trkpt>
<trkpt lat="48.411580" lon="10.074370"><ele>466</ele><time>2015-05-06T05:45:51Z</time></trkpt>
<trkpt lat="48.411770" lon="10.073330"><ele>465</ele><time>2015-05-06T05:45:51Z</time></trkpt>
<trkpt lat="48.411620" lon="10.072140"><ele>469</ele><time>2015-05-06T05:45:51Z</time></trkpt>
<trkpt lat="48.410560" lon="10.069930"><ele>466</ele><time>2015-05-06T05:45:51Z</time></trkpt>
<trkpt lat="48.410460" lon="10.068980"><ele>466</ele><time>2015-05-06T05:45:51Z</time></trkpt>
<trkpt lat="48.411600" lon="10.069430"><ele>465</ele><time>2015-05-06T05:45:51Z</time></trkpt>
<trkpt lat="48.413080" lon="10.070270"><ele>464</ele><time>2015-05-06T05:45:51Z</time></trkpt>
<trkpt lat="48.413590" lon="10.070400"><ele>464</ele><time>2015-05-06T05:45:51Z</time></trkpt>
<trkpt lat="48.413980" lon="10.069330"><ele>464</ele><time>2015-05-06T05:45:51Z</time></trkpt>
<trkpt lat="48.414280" lon="10.068830"><ele>464</ele><time>2015-05-06T05:45:51Z</time></trkpt>
<trkpt lat="48.414620" lon="10.069110"><ele>464</ele><time>2015-05-06T05:45:51Z</time></trkpt>
<trkpt lat="48.415870" lon="10.067270"><ele>464</ele><time>2015-05-06T05:45:51Z</time></trkpt>
<trkpt lat="48.416960" lon="10.066110"><ele>464</ele><time>2015-05-06T05:45:51Z</time></trkpt>
<trkpt lat="48.418570" lon="10.065410"><ele>464</ele><time>2015-05-06T05:45:51Z</time></trkpt>
<trkpt lat="48.420030" lon="10.063680"><ele>464</ele><time>2015-05-06T05:45:51Z</time></trkpt>
<trkpt lat="48.422140" lon="10.063620"><ele>464</ele><time>2015-05-06T05:45:51Z</time></trkpt>
<trkpt lat="48.424750" lon="10.063680"><ele>464</ele><time>2015-05-06T05:45:51Z</time></trkpt>
<trkpt lat="48.426420" lon="10.063470"><ele>463</ele><time>2015-05-06T05:45:51Z</time></trkpt>
<trkpt lat="48.426810" lon="10.062860"><ele>463</ele><time>2015-05-06T05:45:51Z</time></trkpt>
<trkpt lat="48.427440" lon="10.062990"><ele>462</ele><time>2015-05-06T05:45:51Z</time></trkpt>
<trkpt lat="48.428390" lon="10.063010"><ele>459</ele><time>2015-05-06T05:45:51Z</time></trkpt>
<trkpt lat="48.429560" lon="10.062970"><ele>458</ele><time>2015-05-06T05:45:51Z</time></trkpt>
<trkpt lat="48.431780" lon="10.062760"><ele>462</ele><time>2015-05-06T05:45:51Z</time></trkpt>
<trkpt lat="48.433250" lon="10.062640"><ele>462</ele><time>2015-05-06T05:45:51Z</time></trkpt>
<trkpt lat="48.435130" lon="10.060510"><ele>462</ele><time>2015-05-06T05:45:51Z</time></trkpt>
<trkpt lat="48.435140" lon="10.059160"><ele>462</ele><time>2015-05-06T05:45:51Z</time></trkpt>
<trkpt lat="48.435110" lon="10.058550"><ele>462</ele><time>2015-05-06T05:45:51Z</time></trkpt>
<trkpt lat="48.435290" lon="10.058090"><ele>462</ele><time>2015-05-06T05:45:51Z</time></trkpt>
<trkpt lat="48.435020" lon="10.057670"><ele>462</ele><time>2015-05-06T05:45:51Z</time></trkpt>
<trkpt lat="48.434790" lon="10.056590"><ele>462</ele><time>2015-05-06T05:45:51Z</time></trkpt>
<trkpt lat="48.434000" lon="10.054550"><ele>461</ele><time>2015-05-06T05:45:51Z</time></trkpt>
<trkpt lat="48.433230" lon="10.052390"><ele>461</ele><time>2015-05-06T05:45:51Z</time></trkpt>
<trkpt lat="48.432780" lon="10.050320"><ele>461</ele><time>2015-05-06T05:45:51Z</time></trkpt>
<trkpt lat="48.431620" lon="10.045870"><ele>460</ele><time>2015-05-06T05:45:51Z</time></trkpt>
<trkpt lat="48.430660" lon="10.042870"><ele>461</ele><time>2015-05-06T05:45:51Z</time></trkpt>
<trkpt lat="48.429720" lon="10.040100"><ele>459</ele><time>2015-05-06T05:45:51Z</time></trkpt>
<trkpt lat="48.429060" lon="10.036430"><ele>463</ele><time>2015-05-06T05:45:51Z</time></trkpt>
<trkpt lat="48.428400" lon="10.034500"><ele>463</ele><time>2015-05-06T05:45:51Z</time></trkpt>
<trkpt lat="48.427270" lon="10.032280"><ele>462</ele><time>2015-05-06T05:45:51Z</time></trkpt>
<trkpt lat="48.425960" lon="10.029750"><ele>464</ele><time>2015-05-06T05:45:51Z</time></trkpt>
<trkpt lat="48.424880" lon="10.027530"><ele>464</ele><time>2015-05-06T05:45:51Z</time></trkpt>
<trkpt lat="48.423770" lon="10.025520"><ele>466</ele><time>2015-05-06T05:45:51Z</time></trkpt>
<trkpt lat="48.422480" lon="10.024170"><ele>467</ele><time>2015-05-06T05:45:51Z</time></trkpt>
<trkpt lat="48.421390" lon="10.022530"><ele>466</ele><time>2015-05-06T05:45:51Z</time></trkpt>
<trkpt lat="48.419290" lon="10.018640"><ele>466</ele><time>2015-05-06T05:45:51Z</time></trkpt>
<trkpt lat="48.417700" lon="10.016090"><ele>466</ele><time>2015-05-06T05:45:51Z</time></trkpt>
<trkpt lat="48.416590" lon="10.014480"><ele>466</ele><time>2015-05-06T05:45:51Z</time></trkpt>
<trkpt lat="48.415660" lon="10.013610"><ele>466</ele><time>2015-05-06T05:45:51Z</time></trkpt>
<trkpt lat="48.414770" lon="10.012820"><ele>465</ele><time>2015-05-06T05:45:51Z</time></trkpt>
<trkpt lat="48.413450" lon="10.011240"><ele>466</ele><time>2015-05-06T05:45:51Z</time></trkpt>
<trkpt lat="48.412380" lon="10.010400"><ele>466</ele><time>2015-05-06T05:45:51Z</time></trkpt>
<trkpt lat="48.411660" lon="10.010590"><ele>466</ele><time>2015-05-06T05:45:51Z</time></trkpt>
</trkseg>
</trk>
</gpx>
